Year,Month,Day,Hour,Minute,Value (Times are PST for windgust in km/hr)
2012,03,13,00,00,8.10
2012,03,13,00,01,17.70
2012,03,13,00,02,19.30
2012,03,13,00,03,19.30
2012,03,13,00,04,14.50
2012,03,13,00,05,17.70
2012,03,13,00,06,25.70
2012,03,13,00,07,17.70
2012,03,13,00,08,11.30
2012,03,13,00,09,19.30
2012,03,13,00,10,16.10
2012,03,13,00,11,14.50
2012,03,13,00,12,11.30
2012,03,13,00,13,14.50
2012,03,13,00,14,17.70
2012,03,13,00,15,16.10
2012,03,13,00,16,14.50
2012,03,13,00,17,8.10
2012,03,13,00,18,6.40
2012,03,13,00,19,25.70
2012,03,13,00,20,16.10
2012,03,13,00,21,17.70
2012,03,13,00,22,16.10
2012,03,13,00,23,16.10
2012,03,13,00,24,14.50
2012,03,13,00,25,19.30
2012,03,13,00,26,16.10
2012,03,13,00,27,19.30
2012,03,13,00,28,11.30
2012,03,13,00,29,20.90
2012,03,13,00,30,17.70
2012,03,13,00,31,17.70
2012,03,13,00,32,14.50
2012,03,13,00,33,19.30
2012,03,13,00,34,22.50
2012,03,13,00,35,24.20
2012,03,13,00,36,16.10
2012,03,13,00,37,14.50
2012,03,13,00,38,17.70
2012,03,13,00,39,20.90
2012,03,13,00,40,22.50
2012,03,13,00,41,16.10
2012,03,13,00,42,11.30
2012,03,13,00,43,14.50
2012,03,13,00,44,16.10
2012,03,13,00,45,17.70
2012,03,13,00,46,17.70
2012,03,13,00,47,24.20
2012,03,13,00,48,19.30
2012,03,13,00,49,16.10
2012,03,13,00,50,8.10
2012,03,13,00,51,16.10
2012,03,13,00,52,17.70
2012,03,13,00,53,22.50
2012,03,13,00,54,17.70
2012,03,13,00,55,20.90
2012,03,13,00,56,17.70
2012,03,13,00,57,9.60
2012,03,13,00,58,20.90
2012,03,13,00,59,11.30
2012,03,13,01,00,8.10
2012,03,13,01,01,24.20
2012,03,13,01,02,17.70
2012,03,13,01,03,9.60
2012,03,13,01,04,12.90
2012,03,13,01,05,16.10
2012,03,13,01,06,12.90
2012,03,13,01,07,20.90
2012,03,13,01,08,20.90
2012,03,13,01,09,14.50
2012,03,13,01,10,9.60
2012,03,13,01,11,11.30
2012,03,13,01,12,17.70
2012,03,13,01,13,14.50
2012,03,13,01,14,9.60
2012,03,13,01,15,9.60
2012,03,13,01,16,16.10
2012,03,13,01,17,9.60
2012,03,13,01,18,11.30
2012,03,13,01,19,17.70
2012,03,13,01,20,22.50
2012,03,13,01,21,14.50
2012,03,13,01,22,14.50
2012,03,13,01,23,16.10
2012,03,13,01,24,8.10
2012,03,13,01,25,11.30
2012,03,13,01,26,14.50
2012,03,13,01,27,17.70
2012,03,13,01,28,9.60
2012,03,13,01,29,9.60
2012,03,13,01,30,11.30
2012,03,13,01,31,11.30
2012,03,13,01,32,20.90
2012,03,13,01,33,24.20
2012,03,13,01,34,11.30
2012,03,13,01,35,8.10
2012,03,13,01,36,14.50
2012,03,13,01,37,30.60
2012,03,13,01,38,11.30
2012,03,13,01,39,20.90
2012,03,13,01,40,19.30
2012,03,13,01,41,14.50
2012,03,13,01,42,14.50
2012,03,13,01,43,16.10
2012,03,13,01,44,11.30
2012,03,13,01,45,17.70
2012,03,13,01,46,16.10
2012,03,13,01,47,22.50
2012,03,13,01,48,20.90
2012,03,13,01,49,25.70
2012,03,13,01,50,24.20
2012,03,13,01,51,22.50
2012,03,13,01,52,29.00
2012,03,13,01,53,25.70
2012,03,13,01,54,20.90
2012,03,13,01,55,19.30
2012,03,13,01,56,20.90
2012,03,13,01,57,25.70
2012,03,13,01,58,16.10
2012,03,13,01,59,19.30
2012,03,13,02,00,25.70
2012,03,13,02,01,19.30
2012,03,13,02,02,20.90
2012,03,13,02,03,20.90
2012,03,13,02,04,24.20
2012,03,13,02,05,24.20
2012,03,13,02,06,20.90
2012,03,13,02,07,19.30
2012,03,13,02,08,20.90
2012,03,13,02,09,20.90
2012,03,13,02,10,14.50
2012,03,13,02,11,16.10
2012,03,13,02,12,24.20
2012,03,13,02,13,22.50
2012,03,13,02,14,17.70
2012,03,13,02,15,14.50
2012,03,13,02,16,24.20
2012,03,13,02,17,22.50
2012,03,13,02,18,17.70
2012,03,13,02,19,24.20
2012,03,13,02,20,17.70
2012,03,13,02,21,16.10
2012,03,13,02,22,17.70
2012,03,13,02,23,17.70
2012,03,13,02,24,22.50
2012,03,13,02,25,20.90
2012,03,13,02,26,16.10
2012,03,13,02,27,17.70
2012,03,13,02,28,22.50
2012,03,13,02,29,24.20
2012,03,13,02,30,17.70
2012,03,13,02,31,22.50
2012,03,13,02,32,16.10
2012,03,13,02,33,24.20
2012,03,13,02,34,20.90
2012,03,13,02,35,11.30
2012,03,13,02,36,29.00
2012,03,13,02,37,19.30
2012,03,13,02,38,17.70
2012,03,13,02,39,22.50
2012,03,13,02,40,19.30
2012,03,13,02,41,27.40
2012,03,13,02,42,30.60
2012,03,13,02,43,27.40
2012,03,13,02,44,16.10
2012,03,13,02,45,20.90
2012,03,13,02,46,17.70
2012,03,13,02,47,14.50
2012,03,13,02,48,8.10
2012,03,13,02,49,6.40
2012,03,13,02,50,11.30
2012,03,13,02,51,22.50
2012,03,13,02,52,14.50
2012,03,13,02,53,9.60
2012,03,13,02,54,14.50
2012,03,13,02,55,8.10
2012,03,13,02,56,14.50
2012,03,13,02,57,12.90
2012,03,13,02,58,6.40
2012,03,13,02,59,14.50
2012,03,13,03,00,9.60
2012,03,13,03,01,9.60
2012,03,13,03,02,8.10
2012,03,13,03,03,4.80
2012,03,13,03,04,8.10
2012,03,13,03,05,3.20
2012,03,13,03,06,3.20
2012,03,13,03,10,1.60
2012,03,13,03,12,1.60
2012,03,13,03,13,1.60
2012,03,13,03,14,1.60
2012,03,13,03,21,1.60
2012,03,13,03,23,1.60
2012,03,13,03,31,1.60
2012,03,13,03,33,6.40
2012,03,13,03,37,3.20
2012,03,13,03,39,6.40
2012,03,13,03,40,1.60
2012,03,13,03,41,3.20
2012,03,13,03,51,1.60
2012,03,13,03,52,1.60
2012,03,13,03,55,3.20
2012,03,13,03,56,6.40
2012,03,13,03,57,3.20
2012,03,13,03,59,1.60
2012,03,13,04,07,1.60
2012,03,13,04,08,3.20
2012,03,13,04,09,3.20
2012,03,13,04,10,3.20
2012,03,13,04,12,3.20
2012,03,13,04,14,3.20
2012,03,13,04,15,3.20
2012,03,13,04,16,3.20
2012,03,13,04,17,3.20
2012,03,13,04,18,1.60
2012,03,13,04,20,1.60
2012,03,13,04,23,1.60
2012,03,13,04,24,4.80
2012,03,13,04,25,3.20
2012,03,13,04,26,1.60
2012,03,13,04,27,1.60
2012,03,13,04,29,3.20
2012,03,13,04,30,3.20
2012,03,13,04,37,1.60
2012,03,13,04,38,1.60
2012,03,13,04,42,4.80
2012,03,13,04,43,3.20
2012,03,13,04,44,4.80
2012,03,13,04,45,3.20
2012,03,13,04,46,3.20
2012,03,13,04,47,1.60
2012,03,13,04,48,4.80
2012,03,13,04,49,8.10
2012,03,13,04,50,6.40
2012,03,13,04,52,3.20
2012,03,13,04,53,1.60
2012,03,13,05,11,4.80
2012,03,13,05,12,4.80
2012,03,13,05,13,4.80
2012,03,13,05,14,4.80
2012,03,13,05,15,4.80
2012,03,13,05,16,3.20
2012,03,13,05,17,4.80
2012,03,13,05,18,3.20
2012,03,13,05,19,3.20
2012,03,13,05,20,3.20
2012,03,13,05,21,1.60
2012,03,13,05,22,3.20
2012,03,13,05,23,9.60
2012,03,13,05,24,1.60
2012,03,13,05,32,3.20
2012,03,13,05,33,3.20
2012,03,13,05,37,4.80
2012,03,13,05,38,6.40
2012,03,13,05,39,3.20
2012,03,13,05,40,3.20
2012,03,13,05,41,1.60
2012,03,13,05,44,3.20
2012,03,13,05,45,3.20
2012,03,13,05,46,1.60
2012,03,13,05,49,1.60
2012,03,13,06,14,3.20
2012,03,13,06,15,3.20
2012,03,13,06,16,1.60
2012,03,13,06,34,3.20
2012,03,13,06,35,4.80
2012,03,13,06,36,4.80
2012,03,13,06,37,4.80
2012,03,13,06,38,4.80
2012,03,13,06,39,6.40
2012,03,13,06,40,4.80
2012,03,13,06,41,4.80
2012,03,13,06,42,4.80
2012,03,13,06,43,3.20
2012,03,13,06,44,1.60
2012,03,13,06,46,3.20
2012,03,13,06,47,1.60
2012,03,13,07,03,1.60
2012,03,13,07,04,3.20
2012,03,13,07,05,3.20
2012,03,13,07,06,4.80
2012,03,13,07,07,3.20
2012,03,13,07,08,4.80
2012,03,13,07,09,6.40
2012,03,13,07,10,4.80
2012,03,13,07,11,3.20
2012,03,13,07,12,3.20
2012,03,13,07,13,3.20
2012,03,13,07,14,3.20
2012,03,13,07,15,3.20
2012,03,13,07,16,3.20
2012,03,13,07,26,4.80
2012,03,13,07,27,3.20
2012,03,13,07,28,1.60
2012,03,13,07,29,3.20
2012,03,13,07,30,1.60
2012,03,13,07,31,3.20
2012,03,13,07,32,3.20
2012,03,13,07,33,3.20
2012,03,13,07,36,1.60
2012,03,13,07,37,3.20
2012,03,13,07,38,4.80
2012,03,13,07,39,3.20
2012,03,13,07,40,1.60
2012,03,13,07,41,1.60
2012,03,13,07,43,3.20
2012,03,13,07,44,3.20
2012,03,13,07,46,1.60
2012,03,13,07,50,3.20
2012,03,13,07,51,3.20
2012,03,13,07,52,1.60
2012,03,13,07,53,1.60
2012,03,13,07,54,3.20
2012,03,13,07,57,3.20
2012,03,13,07,59,3.20
2012,03,13,08,00,8.10
2012,03,13,08,01,1.60
2012,03,13,08,02,8.10
2012,03,13,08,03,9.60
2012,03,13,08,04,6.40
2012,03,13,08,05,4.80
2012,03,13,08,06,11.30
2012,03,13,08,07,19.30
2012,03,13,08,08,11.30
2012,03,13,08,09,16.10
2012,03,13,08,10,11.30
2012,03,13,08,11,16.10
2012,03,13,08,12,19.30
2012,03,13,08,13,16.10
2012,03,13,08,14,20.90
2012,03,13,08,15,19.30
2012,03,13,08,16,14.50
2012,03,13,08,17,16.10
2012,03,13,08,18,17.70
2012,03,13,08,19,19.30
2012,03,13,08,20,8.10
2012,03,13,08,21,17.70
2012,03,13,08,22,19.30
2012,03,13,08,23,11.30
2012,03,13,08,24,9.60
2012,03,13,08,25,8.10
2012,03,13,08,26,8.10
2012,03,13,08,27,14.50
2012,03,13,08,28,9.60
2012,03,13,08,29,9.60
2012,03,13,08,30,6.40
2012,03,13,08,31,4.80
2012,03,13,08,32,9.60
2012,03,13,08,33,6.40
2012,03,13,08,34,4.80
2012,03,13,08,35,9.60
2012,03,13,08,36,4.80
2012,03,13,08,37,9.60
2012,03,13,08,38,6.40
2012,03,13,08,39,8.10
2012,03,13,08,40,6.40
2012,03,13,08,41,3.20
2012,03,13,08,42,8.10
2012,03,13,08,43,3.20
2012,03,13,08,44,6.40
2012,03,13,08,45,6.40
2012,03,13,08,46,4.80
2012,03,13,08,47,6.40
2012,03,13,08,48,3.20
2012,03,13,08,49,4.80
2012,03,13,08,50,6.40
2012,03,13,08,51,6.40
2012,03,13,08,52,9.60
2012,03,13,08,53,6.40
2012,03,13,08,54,8.10
2012,03,13,08,55,3.20
2012,03,13,08,56,1.60
2012,03,13,08,57,4.80
2012,03,13,08,58,6.40
2012,03,13,08,59,1.60
2012,03,13,09,00,4.80
2012,03,13,09,01,9.60
2012,03,13,09,02,8.10
2012,03,13,09,03,6.40
2012,03,13,09,04,9.60
2012,03,13,09,05,8.10
2012,03,13,09,06,4.80
2012,03,13,09,07,3.20
2012,03,13,09,08,8.10
2012,03,13,09,09,9.60
2012,03,13,09,10,8.10
2012,03,13,09,11,4.80
2012,03,13,09,12,8.10
2012,03,13,09,13,12.90
2012,03,13,09,14,11.30
2012,03,13,09,15,6.40
2012,03,13,09,16,6.40
2012,03,13,09,17,6.40
2012,03,13,09,18,9.60
2012,03,13,09,19,9.60
2012,03,13,09,20,12.90
2012,03,13,09,21,14.50
2012,03,13,09,22,9.60
2012,03,13,09,23,14.50
2012,03,13,09,24,17.70
2012,03,13,09,25,11.30
2012,03,13,09,26,9.60
2012,03,13,09,27,11.30
2012,03,13,09,28,20.90
2012,03,13,09,29,16.10
2012,03,13,09,30,8.10
2012,03,13,09,31,16.10
2012,03,13,09,32,14.50
2012,03,13,09,33,9.60
2012,03,13,09,34,14.50
2012,03,13,09,35,16.10
2012,03,13,09,36,17.70
2012,03,13,09,37,8.10
2012,03,13,09,38,8.10
2012,03,13,09,39,6.40
2012,03,13,09,40,8.10
2012,03,13,09,41,8.10
2012,03,13,09,42,8.10
2012,03,13,09,43,9.60
2012,03,13,09,44,8.10
2012,03,13,09,45,4.80
2012,03,13,09,46,6.40
2012,03,13,09,47,9.60
2012,03,13,09,48,8.10
2012,03,13,09,49,14.50
2012,03,13,09,50,11.30
2012,03,13,09,51,11.30
2012,03,13,09,52,9.60
2012,03,13,09,53,8.10
2012,03,13,09,54,8.10
2012,03,13,09,55,8.10
2012,03,13,09,56,4.80
2012,03,13,09,57,8.10
2012,03,13,09,58,8.10
2012,03,13,09,59,9.60
2012,03,13,10,00,6.40
2012,03,13,10,01,6.40
2012,03,13,10,02,3.20
2012,03,13,10,03,1.60
2012,03,13,10,04,4.80
2012,03,13,10,05,4.80
2012,03,13,10,06,4.80
2012,03,13,10,07,4.80
2012,03,13,10,08,3.20
2012,03,13,10,09,6.40
2012,03,13,10,10,8.10
2012,03,13,10,11,6.40
2012,03,13,10,12,6.40
2012,03,13,10,13,1.60
2012,03,13,10,14,4.80
2012,03,13,10,15,3.20
2012,03,13,10,16,8.10
2012,03,13,10,17,11.30
2012,03,13,10,18,6.40
2012,03,13,10,19,4.80
2012,03,13,10,20,4.80
2012,03,13,10,21,3.20
2012,03,13,10,22,6.40
2012,03,13,10,23,8.10
2012,03,13,10,24,1.60
2012,03,13,10,25,6.40
2012,03,13,10,26,8.10
2012,03,13,10,27,6.40
2012,03,13,10,28,9.60
2012,03,13,10,29,6.40
2012,03,13,10,30,9.60
2012,03,13,10,31,8.10
2012,03,13,10,32,8.10
2012,03,13,10,33,11.30
2012,03,13,10,34,9.60
2012,03,13,10,35,9.60
2012,03,13,10,36,16.10
2012,03,13,10,37,8.10
2012,03,13,10,38,8.10
2012,03,13,10,39,8.10
2012,03,13,10,40,3.20
2012,03,13,10,41,4.80
2012,03,13,10,42,8.10
2012,03,13,10,43,4.80
2012,03,13,10,44,4.80
2012,03,13,10,45,11.30
2012,03,13,10,46,11.30
2012,03,13,10,47,6.40
2012,03,13,10,48,6.40
2012,03,13,10,49,4.80
2012,03,13,10,52,3.20
2012,03,13,10,56,4.80
2012,03,13,10,57,6.40
2012,03,13,10,58,6.40
2012,03,13,10,59,8.10
2012,03,13,11,00,8.10
2012,03,13,11,01,3.20
2012,03,13,11,02,3.20
2012,03,13,11,03,6.40
2012,03,13,11,04,8.10
2012,03,13,11,05,6.40
2012,03,13,11,06,6.40
2012,03,13,11,07,1.60
2012,03,13,11,08,8.10
2012,03,13,11,09,4.80
2012,03,13,11,10,6.40
2012,03,13,11,11,6.40
2012,03,13,11,12,3.20
2012,03,13,11,13,6.40
2012,03,13,11,14,4.80
2012,03,13,11,15,4.80
2012,03,13,11,16,8.10
2012,03,13,11,17,4.80
2012,03,13,11,18,4.80
2012,03,13,11,19,4.80
2012,03,13,11,20,6.40
2012,03,13,11,21,4.80
2012,03,13,11,22,8.10
2012,03,13,11,23,8.10
2012,03,13,11,24,14.50
2012,03,13,11,25,8.10
2012,03,13,11,26,8.10
2012,03,13,11,27,6.40
2012,03,13,11,28,4.80
2012,03,13,11,29,8.10
2012,03,13,11,30,8.10
2012,03,13,11,31,9.60
2012,03,13,11,32,8.10
2012,03,13,11,33,11.30
2012,03,13,11,34,11.30
2012,03,13,11,35,11.30
2012,03,13,11,36,17.70
2012,03,13,11,37,9.60
2012,03,13,11,38,11.30
2012,03,13,11,39,14.50
2012,03,13,11,40,8.10
2012,03,13,11,41,8.10
2012,03,13,11,42,9.60
2012,03,13,11,43,6.40
2012,03,13,11,44,8.10
2012,03,13,11,45,8.10
2012,03,13,11,46,8.10
2012,03,13,11,47,8.10
2012,03,13,11,48,9.60
2012,03,13,11,49,6.40
2012,03,13,11,50,4.80
2012,03,13,11,51,8.10
2012,03,13,11,52,4.80
2012,03,13,11,53,4.80
2012,03,13,11,54,6.40
2012,03,13,11,55,4.80
2012,03,13,11,56,14.50
2012,03,13,11,57,8.10
2012,03,13,11,58,4.80
2012,03,13,11,59,14.50
2012,03,13,12,00,12.90
2012,03,13,12,01,14.50
2012,03,13,12,02,11.30
2012,03,13,12,03,14.50
2012,03,13,12,04,16.10
2012,03,13,12,05,9.60
2012,03,13,12,06,11.30
2012,03,13,12,07,16.10
2012,03,13,12,08,12.90
2012,03,13,12,09,6.40
2012,03,13,12,10,9.60
2012,03,13,12,11,9.60
2012,03,13,12,12,17.70
2012,03,13,12,13,16.10
2012,03,13,12,14,17.70
2012,03,13,12,15,9.60
2012,03,13,12,16,14.50
2012,03,13,12,17,16.10
2012,03,13,12,18,14.50
2012,03,13,12,19,6.40
2012,03,13,12,20,9.60
2012,03,13,12,21,19.30
2012,03,13,12,22,16.10
2012,03,13,12,23,22.50
2012,03,13,12,24,14.50
2012,03,13,12,25,14.50
2012,03,13,12,26,16.10
2012,03,13,12,27,16.10
2012,03,13,12,28,19.30
2012,03,13,12,29,16.10
2012,03,13,12,30,17.70
2012,03,13,12,31,16.10
2012,03,13,12,32,19.30
2012,03,13,12,33,14.50
2012,03,13,12,34,19.30
2012,03,13,12,35,11.30
2012,03,13,12,36,8.10
2012,03,13,12,37,11.30
2012,03,13,12,38,9.60
2012,03,13,12,39,9.60
2012,03,13,12,40,11.30
2012,03,13,12,41,9.60
2012,03,13,12,42,19.30
2012,03,13,12,43,14.50
2012,03,13,12,44,20.90
2012,03,13,12,45,17.70
2012,03,13,12,46,11.30
2012,03,13,12,47,9.60
2012,03,13,12,48,9.60
2012,03,13,12,49,6.40
2012,03,13,12,50,16.10
2012,03,13,12,51,11.30
2012,03,13,12,52,16.10
2012,03,13,12,53,20.90
2012,03,13,12,54,16.10
2012,03,13,12,55,11.30
2012,03,13,12,56,19.30
2012,03,13,12,57,20.90
2012,03,13,12,58,14.50
2012,03,13,12,59,19.30
2012,03,13,13,00,11.30
2012,03,13,13,01,14.50
2012,03,13,13,02,8.10
2012,03,13,13,03,12.90
2012,03,13,13,04,19.30
2012,03,13,13,05,16.10
2012,03,13,13,06,11.30
2012,03,13,13,07,8.10
2012,03,13,13,08,17.70
2012,03,13,13,09,8.10
2012,03,13,13,10,8.10
2012,03,13,13,11,8.10
2012,03,13,13,12,8.10
2012,03,13,13,13,8.10
2012,03,13,13,14,16.10
2012,03,13,13,15,17.70
2012,03,13,13,16,16.10
2012,03,13,13,17,12.90
2012,03,13,13,18,16.10
2012,03,13,13,19,17.70
2012,03,13,13,20,17.70
2012,03,13,13,21,12.90
2012,03,13,13,22,14.50
2012,03,13,13,23,20.90
2012,03,13,13,24,17.70
2012,03,13,13,25,12.90
2012,03,13,13,26,11.30
2012,03,13,13,27,17.70
2012,03,13,13,28,9.60
2012,03,13,13,29,14.50
2012,03,13,13,30,16.10
2012,03,13,13,31,9.60
2012,03,13,13,32,16.10
2012,03,13,13,33,8.10
2012,03,13,13,34,9.60
2012,03,13,13,35,9.60
2012,03,13,13,36,8.10
2012,03,13,13,37,8.10
2012,03,13,13,38,14.50
2012,03,13,13,39,11.30
2012,03,13,13,40,11.30
2012,03,13,13,41,9.60
2012,03,13,13,42,16.10
2012,03,13,13,43,11.30
2012,03,13,13,44,8.10
2012,03,13,13,45,9.60
2012,03,13,13,46,11.30
2012,03,13,13,47,14.50
2012,03,13,13,48,14.50
2012,03,13,13,49,9.60
2012,03,13,13,50,6.40
2012,03,13,13,51,8.10
2012,03,13,13,52,6.40
2012,03,13,13,53,9.60
2012,03,13,13,54,11.30
2012,03,13,13,55,11.30
2012,03,13,13,56,19.30
2012,03,13,13,57,16.10
2012,03,13,13,58,12.90
2012,03,13,13,59,24.20
2012,03,13,14,00,32.20
2012,03,13,14,01,17.70
2012,03,13,14,02,11.30
2012,03,13,14,03,17.70
2012,03,13,14,04,14.50
2012,03,13,14,05,9.60
2012,03,13,14,06,12.90
2012,03,13,14,07,27.40
2012,03,13,14,08,17.70
2012,03,13,14,09,22.50
2012,03,13,14,10,22.50
2012,03,13,14,11,19.30
2012,03,13,14,12,19.30
2012,03,13,14,13,20.90
2012,03,13,14,14,24.20
2012,03,13,14,15,19.30
2012,03,13,14,16,25.70
2012,03,13,14,17,19.30
2012,03,13,14,18,17.70
2012,03,13,14,19,14.50
2012,03,13,14,20,24.20
2012,03,13,14,21,20.90
2012,03,13,14,22,16.10
2012,03,13,14,23,22.50
2012,03,13,14,24,22.50
2012,03,13,14,25,22.50
2012,03,13,14,26,24.20
2012,03,13,14,27,14.50
2012,03,13,14,28,17.70
2012,03,13,14,29,11.30
2012,03,13,14,30,20.90
2012,03,13,14,31,27.40
2012,03,13,14,32,29.00
2012,03,13,14,33,20.90
2012,03,13,14,34,16.10
2012,03,13,14,35,24.20
2012,03,13,14,36,16.10
2012,03,13,14,37,17.70
2012,03,13,14,38,30.60
2012,03,13,14,39,33.80
2012,03,13,14,40,17.70
2012,03,13,14,41,22.50
2012,03,13,14,42,24.20
2012,03,13,14,43,20.90
2012,03,13,14,44,20.90
2012,03,13,14,45,22.50
2012,03,13,14,46,17.70
2012,03,13,14,47,19.30
2012,03,13,14,48,17.70
2012,03,13,14,49,16.10
2012,03,13,14,50,12.90
2012,03,13,14,51,9.60
2012,03,13,14,52,8.10
2012,03,13,14,53,16.10
2012,03,13,14,54,16.10
2012,03,13,14,55,12.90
2012,03,13,14,56,6.40
2012,03,13,14,57,9.60
2012,03,13,14,58,9.60
2012,03,13,14,59,9.60
2012,03,13,15,00,6.40
2012,03,13,15,01,11.30
2012,03,13,15,02,9.60
2012,03,13,15,03,12.90
2012,03,13,15,04,9.60
2012,03,13,15,05,22.50
2012,03,13,15,06,22.50
2012,03,13,15,07,14.50
2012,03,13,15,08,27.40
2012,03,13,15,09,27.40
2012,03,13,15,10,27.40
2012,03,13,15,11,27.40
2012,03,13,15,12,25.70
2012,03,13,15,13,29.00
2012,03,13,15,14,27.40
2012,03,13,15,15,16.10
2012,03,13,15,16,25.70
2012,03,13,15,17,24.20
2012,03,13,15,18,24.20
2012,03,13,15,19,32.20
2012,03,13,15,20,20.90
2012,03,13,15,21,25.70
2012,03,13,15,22,20.90
2012,03,13,15,23,20.90
2012,03,13,15,24,20.90
2012,03,13,15,25,11.30
2012,03,13,15,26,11.30
2012,03,13,15,27,22.50
2012,03,13,15,28,29.00
2012,03,13,15,29,32.20
2012,03,13,15,30,16.10
2012,03,13,15,31,16.10
2012,03,13,15,32,17.70
2012,03,13,15,33,14.50
2012,03,13,15,34,24.20
2012,03,13,15,35,19.30
2012,03,13,15,36,25.70
2012,03,13,15,37,20.90
2012,03,13,15,38,24.20
2012,03,13,15,39,22.50
2012,03,13,15,40,20.90
2012,03,13,15,41,19.30
2012,03,13,15,42,19.30
2012,03,13,15,43,24.20
2012,03,13,15,44,25.70
2012,03,13,15,45,19.30
2012,03,13,15,46,16.10
2012,03,13,15,47,16.10
2012,03,13,15,48,9.60
2012,03,13,15,49,16.10
2012,03,13,15,50,16.10
2012,03,13,15,51,19.30
2012,03,13,15,52,19.30
2012,03,13,15,53,20.90
2012,03,13,15,54,19.30
2012,03,13,15,55,8.10
2012,03,13,15,56,20.90
2012,03,13,15,57,24.20
2012,03,13,15,58,8.10
2012,03,13,15,59,17.70
2012,03,13,16,00,17.70
2012,03,13,16,01,25.70
2012,03,13,16,02,17.70
2012,03,13,16,03,11.30
2012,03,13,16,04,11.30
2012,03,13,16,05,16.10
2012,03,13,16,06,20.90
2012,03,13,16,07,22.50
2012,03,13,16,08,22.50
2012,03,13,16,09,16.10
2012,03,13,16,10,9.60
2012,03,13,16,11,9.60
2012,03,13,16,12,19.30
2012,03,13,16,13,20.90
2012,03,13,16,14,19.30
2012,03,13,16,15,9.60
2012,03,13,16,16,9.60
2012,03,13,16,17,11.30
2012,03,13,16,18,16.10
2012,03,13,16,19,25.70
2012,03,13,16,20,14.50
2012,03,13,16,21,12.90
2012,03,13,16,22,9.60
2012,03,13,16,23,14.50
2012,03,13,16,24,19.30
2012,03,13,16,25,11.30
2012,03,13,16,26,11.30
2012,03,13,16,27,16.10
2012,03,13,16,28,17.70
2012,03,13,16,29,19.30
2012,03,13,16,30,24.20
2012,03,13,16,31,16.10
2012,03,13,16,32,16.10
2012,03,13,16,33,22.50
2012,03,13,16,34,27.40
2012,03,13,16,35,32.20
2012,03,13,16,36,20.90
2012,03,13,16,37,20.90
2012,03,13,16,38,19.30
2012,03,13,16,39,27.40
2012,03,13,16,40,30.60
2012,03,13,16,41,19.30
2012,03,13,16,42,19.30
2012,03,13,16,43,22.50
2012,03,13,16,44,17.70
2012,03,13,16,45,22.50
2012,03,13,16,46,17.70
2012,03,13,16,47,20.90
2012,03,13,16,48,16.10
2012,03,13,16,49,20.90
2012,03,13,16,50,17.70
2012,03,13,16,51,19.30
2012,03,13,16,52,20.90
2012,03,13,16,53,19.30
2012,03,13,16,54,19.30
2012,03,13,16,55,17.70
2012,03,13,16,56,24.20
2012,03,13,16,57,32.20
2012,03,13,16,58,14.50
2012,03,13,16,59,14.50
2012,03,13,17,00,11.30
2012,03,13,17,01,17.70
2012,03,13,17,02,20.90
2012,03,13,17,03,17.70
2012,03,13,17,04,16.10
2012,03,13,17,05,8.10
2012,03,13,17,06,16.10
2012,03,13,17,07,16.10
2012,03,13,17,08,12.90
2012,03,13,17,09,11.30
2012,03,13,17,10,14.50
2012,03,13,17,11,12.90
2012,03,13,17,12,11.30
2012,03,13,17,13,17.70
2012,03,13,17,14,17.70
2012,03,13,17,15,17.70
2012,03,13,17,16,16.10
2012,03,13,17,17,17.70
2012,03,13,17,18,19.30
2012,03,13,17,19,20.90
2012,03,13,17,20,24.20
2012,03,13,17,21,17.70
2012,03,13,17,22,24.20
2012,03,13,17,23,22.50
2012,03,13,17,24,11.30
2012,03,13,17,25,8.10
2012,03,13,17,26,20.90
2012,03,13,17,27,30.60
2012,03,13,17,28,14.50
2012,03,13,17,29,17.70
2012,03,13,17,30,11.30
2012,03,13,17,31,9.60
2012,03,13,17,32,14.50
2012,03,13,17,33,20.90
2012,03,13,17,34,14.50
2012,03,13,17,35,19.30
2012,03,13,17,36,22.50
2012,03,13,17,37,17.70
2012,03,13,17,38,20.90
2012,03,13,17,39,19.30
2012,03,13,17,40,16.10
2012,03,13,17,41,19.30
2012,03,13,17,42,9.60
2012,03,13,17,43,14.50
2012,03,13,17,44,16.10
2012,03,13,17,45,14.50
2012,03,13,17,46,17.70
2012,03,13,17,47,17.70
2012,03,13,17,48,22.50
2012,03,13,17,49,11.30
2012,03,13,17,50,14.50
2012,03,13,17,51,9.60
2012,03,13,17,52,17.70
2012,03,13,17,53,29.00
2012,03,13,17,54,19.30
2012,03,13,17,55,17.70
2012,03,13,17,56,16.10
2012,03,13,17,57,11.30
2012,03,13,17,58,8.10
2012,03,13,17,59,16.10
2012,03,13,18,00,11.30
2012,03,13,18,01,8.10
2012,03,13,18,02,11.30
2012,03,13,18,03,17.70
2012,03,13,18,04,11.30
2012,03,13,18,05,4.80
2012,03,13,18,06,11.30
2012,03,13,18,07,6.40
2012,03,13,18,20,1.60
2012,03,13,18,22,1.60
2012,03,13,18,23,1.60
2012,03,13,18,24,1.60
2012,03,13,18,27,1.60
2012,03,13,18,28,3.20
2012,03,13,18,30,8.10
2012,03,13,18,31,17.70
2012,03,13,18,32,9.60
2012,03,13,18,33,9.60
2012,03,13,18,34,8.10
2012,03,13,18,35,12.90
2012,03,13,18,36,6.40
2012,03,13,18,37,8.10
2012,03,13,18,38,17.70
2012,03,13,18,39,19.30
2012,03,13,18,40,19.30
2012,03,13,18,41,11.30
2012,03,13,18,42,6.40
2012,03,13,18,43,11.30
2012,03,13,18,44,8.10
2012,03,13,18,45,11.30
2012,03,13,18,46,8.10
2012,03,13,18,47,9.60
2012,03,13,18,48,6.40
2012,03,13,18,49,8.10
2012,03,13,18,50,6.40
2012,03,13,18,51,3.20
2012,03,13,18,52,8.10
2012,03,13,18,53,9.60
2012,03,13,18,54,8.10
2012,03,13,18,55,14.50
2012,03,13,18,56,14.50
2012,03,13,18,57,9.60
2012,03,13,18,58,6.40
2012,03,13,18,59,11.30
2012,03,13,19,00,9.60
2012,03,13,19,01,3.20
2012,03,13,19,02,4.80
2012,03,13,19,03,6.40
2012,03,13,19,05,3.20
2012,03,13,19,06,6.40
2012,03,13,19,07,9.60
2012,03,13,19,08,11.30
2012,03,13,19,09,6.40
2012,03,13,19,10,6.40
2012,03,13,19,12,8.10
2012,03,13,19,13,9.60
2012,03,13,19,14,1.60
2012,03,13,19,15,3.20
2012,03,13,19,16,4.80
2012,03,13,19,17,8.10
2012,03,13,19,21,4.80
2012,03,13,19,22,4.80
2012,03,13,19,23,6.40
2012,03,13,19,28,6.40
2012,03,13,19,32,6.40
2012,03,13,19,33,3.20
2012,03,13,19,34,1.60
2012,03,13,19,39,1.60
2012,03,13,19,44,4.80
2012,03,13,19,45,4.80
2012,03,13,19,46,1.60
2012,03,13,19,47,1.60
2012,03,13,19,49,1.60
2012,03,13,19,51,3.20
2012,03,13,19,52,3.20
2012,03,13,19,55,8.10
2012,03,13,19,56,3.20
2012,03,13,19,58,1.60
2012,03,13,19,59,4.80
2012,03,13,20,00,1.60
2012,03,13,20,01,1.60
2012,03,13,20,05,4.80
2012,03,13,20,06,6.40
2012,03,13,20,07,4.80
2012,03,13,20,08,1.60
2012,03,13,20,09,4.80
2012,03,13,20,10,3.20
2012,03,13,20,11,3.20
2012,03,13,20,12,1.60
2012,03,13,20,13,3.20
2012,03,13,20,14,6.40
2012,03,13,20,15,4.80
2012,03,13,20,16,3.20
2012,03,13,20,17,3.20
2012,03,13,20,19,1.60
2012,03,13,20,20,1.60
2012,03,13,20,22,1.60
2012,03,13,20,23,3.20
2012,03,13,20,24,6.40
2012,03,13,20,25,6.40
2012,03,13,20,26,8.10
2012,03,13,20,27,6.40
2012,03,13,20,28,6.40
2012,03,13,20,29,4.80
2012,03,13,20,30,4.80
2012,03,13,20,31,6.40
2012,03,13,20,32,6.40
2012,03,13,20,33,6.40
2012,03,13,20,34,8.10
2012,03,13,20,35,11.30
2012,03,13,20,36,9.60
2012,03,13,20,37,4.80
2012,03,13,20,38,4.80
2012,03,13,20,39,8.10
2012,03,13,20,41,1.60
2012,03,13,20,42,1.60
2012,03,13,20,43,1.60
2012,03,13,20,44,4.80
2012,03,13,20,45,3.20
2012,03,13,20,46,3.20
2012,03,13,20,47,8.10
2012,03,13,20,48,9.60
2012,03,13,20,49,8.10
2012,03,13,20,50,4.80
2012,03,13,20,51,1.60
2012,03,13,20,52,1.60
2012,03,13,20,53,3.20
2012,03,13,20,57,4.80
2012,03,13,20,58,4.80
2012,03,13,20,59,1.60
2012,03,13,21,00,3.20
2012,03,13,21,01,3.20
2012,03,13,21,04,3.20
2012,03,13,21,05,4.80
2012,03,13,21,09,11.30
2012,03,13,21,10,6.40
2012,03,13,21,11,1.60
2012,03,13,21,12,3.20
2012,03,13,21,13,4.80
2012,03,13,21,14,4.80
2012,03,13,21,15,6.40
2012,03,13,21,16,4.80
2012,03,13,21,17,6.40
2012,03,13,21,18,4.80
2012,03,13,21,19,3.20
2012,03,13,21,20,3.20
2012,03,13,21,21,4.80
2012,03,13,21,22,3.20
2012,03,13,21,23,3.20
2012,03,13,21,25,1.60
2012,03,13,21,26,3.20
2012,03,13,21,29,4.80
2012,03,13,21,30,3.20